Location: Cheching
(60.0667°N, 164.2167°W)
Time: 14:01:04
(UTC+00:00)

STRAND 1 - Pass Details

Date: 19 January 2021
Orbit: 768 x 780 km, 98.4° (Epoch: 04 March)

Event Time Altitude Azimuth Distance (km) Brightness Sun altitude
Rises 13:39:39 0° 74° (ENE) 3,255 ? -41.9°
Reaches altitude 10° 13:44:21 10° 35° (NE) 2,335 ? -41.5°
Maximum altitude 13:45:05 10° 26° (NNE) 2,314 ? -41.4°
Drops below altitude 10° 13:45:50 10° 18° (NNE) 2,337 ? -41.3°
Enters shadow 13:47:04 - 5° (N) 2,464 ? -41.2°
